Hourly Data Report for May 24, 2021

WIARTON A
ONTARIO
Current Station Operator: NAVCAN

44°44'39.000" N
81°06'31.000" W
221.90 m
6119499
71633
YVV

Download Data

Hourly Data (May 2021)
Hourly Data Report for May 24, 2021
TIME
LST
Temp Definition
°C
Dew Point Definition
°C
Rel Hum Definition
%
Precip. Amount Definition
mm

Wind Dir Definition
10's deg

Wind Spd Definition
km/h
Visibility Definition
km
Stn Press Definition
kPa
Hmdx Definition


Wind Chill Definition


Weather Definition


00:00 10.4 2.0 56   7 18 24.1 99.71     LegendNANA
01:00 9.0 2.9 65   7 12 24.1 99.72     Mostly Cloudy
02:00 9.1 3.5 68   6 13 24.1 99.69     LegendNANA
03:00 7.8 4.1 77   6 7 24.1 99.67     LegendNANA
04:00 7.2 3.9 80   7 9 24.1 99.67     Mainly Clear
05:00 7.1 4.4 83   5 5 24.1 99.71     LegendNANA
06:00 9.2 5.6 78   6 7 24.1 99.75     LegendNANA
07:00 12.6 4.8 59   10 11 24.1 99.73     Clear
08:00 13.7 4.2 53   13 13 24.1 99.72     LegendNANA
09:00 15.4 5.0 50   13 15 24.1 99.72     LegendNANA
10:00 17.8 6.7 48   12 10 24.1 99.66     Mostly Cloudy
11:00 16.9 7.5 54   34 9 24.1 99.62     LegendNANA
12:00 18.6 7.6 48   1 10 24.1 99.57     LegendNANA
13:00 19.1 8.5 50   36 10 24.1 99.51     Mostly Cloudy
14:00 19.0 9.3 53   31 7 24.1 99.46     LegendNANA
15:00 19.8 8.9 49   1 7 24.1 99.40     LegendNANA
16:00 19.5 8.3 48   36 3 24.1 99.35     Mainly Clear
17:00 18.7 8.3 50   32 3 24.1 99.30     LegendNANA
18:00 17.6 7.9 53   36 2 24.1 99.28     LegendNANA
19:00 18.5 10.8 61   19 4 24.1 99.26     Mostly Cloudy
20:00 17.6 11.0 65   16 5 24.1 99.21     LegendNANA
21:00 16.9 12.3 74   15 7 24.1 99.20     LegendNANA
22:00 16.9 12.5 75   14 8 24.1 99.17     Mostly Cloudy
23:00 16.1 10.2 68   16 8 24.1 99.15     LegendNANA

Notes on Data Quality.

Legend

  • E = Estimated
  • M = Missing
  • NA = Not Available*
  • [empty] = Indicates an unobserved value
Date modified: